SCP
0 0 0 0 0 0 0 0 0 0 0 0 0 0 0 0 0 0 0 0 0 0 0 0 0 0 0 0 0 0 0 0 0 0 0 0 0 0 0 0 0 0 0
0 0 0 0 0 0 0 0 0 0 0 0 0 0 0 0 0 0 0 0 0 0 0 0 0 0 0 0 0 0 0 0 0 0 0 0 0 0 0 0 0 0 0
0 0 0 0 0 0 0 0 0 0 0 0 0 0 0 0 0 0 0 0 0 0 0 0 0 0 0 0 0 0 0 0 0 0 0 0 0 0 0 0 0 0 0
0 0 0 0 0 0 0 0 0 0 0 0 0 0 0 0 0 0 0 0 0 0 0 0 0 0 0 0 0 0 0 0 0 0 0 0 0 0 0 0 0 0 0
0 0 0 0 0 0 0 0 0 0 0 0 0 0 0 0 0 0 0 0 0 0 0 0 0 0 0 0 0 0 0 0 0 0 0 0 0 0 0 0 0 0 0
0 0 0 0 0 0 0 0 0 0 0 0 0 0 0 0 0 0 0 0 0 0 0 0 0 0 0 0 0 0 0 0 0 0 0 0 0 0 0 0 0 0 0
0 0 0 0 0 0 0 0 0 0 0 0 0 0 0 0 0 0 0 0 0 0 0 0 0 0 0 0 0 0 0 0 0 0 0 0 0 0 0 0 0 0 0
0 0 0 0 0 0 0 0 0 0 0 0 0 0 0 0 0 0 0 0 0 0 0 0 0 0 0 0 0 0 0 0 0 0 0 0 0 0 0 0 0 0 0
0 0 0 0 0 0 0 0 0 0 0 0 0 0 0 0 0 0 0 0 0 0 0 0 0 0 0 0 0 0 0 0 0 0 0 0 0 0 0 0 0 0 0
0 0 0 0 0 0 0 0 0 0 0 0 0 0 0 0 0 0 0 0 0 0 0 0 0 0 0 0 0 0 0 0 0 0 0 0 0 0 0 0 0 0 0
0 0 0 0 0 0 0 0 0 0 0 0 0 0 0 0 0 0 0 0 0 0 0 0 0 0 0 0 0 0 0 0 0 0 0 0 0 0 0 0 0 0 0
0 0 0 0 0 0 0 0 0 0 0 0 0 0 0 0 0 0 0 0 0 0 0 0 0 0 0 0 0 0 0 0 0 0 0 0 0 0 0 0 0 0 0
0 0 0 0 -0 -0 0 0 0 0 0 0 0 0 0 0 0 0 0 0 0 0 0 0 0 0 0 0 0 0 0 0 0 0 0 0 0 0 0 0 0 0 0
0 0 0 0 0 0 0 0 0 0 0 0 0 0 0 0 0 0 0 0 0 0 0 0 0 0 0 0 0 0 0 0 0 0 0 0 0 0 0 0 0 0 0
0 0 0 0 0 0 0 0 0 0 0 0 0 0 0 0 0 0 0 0 0 0 0 0 0 0 0 0 0 0 0 0 0 0 0 0 0 0 0 0 0 0 0
0 0 0 0 0 0 0 0 0 0 0 0 0 0 0 0 0 0 0 0 0 0 0 0 0 0 0 0 0 0 0 0 0 0 0 0 0 0 0 0 0 0 0
0 0 0 0 0 0 0 0 0 0 0 0 0 0 0 0 0 0 0 0 0 0 0 0 0 0 0 0 0 0 0 0 0 0 0 0 0 0 0 0 0 0 0
0 0 0 0 0 0 0 0 0 0 0 0 0 0 0 0 0 0 0 0 0 0 0 0 0 0 0 0 0 0 0 0 0 0 0 0 0 0 0 0 0 0 0
0 0 0 0 0 0 0 0 0 0 0 0 0 0 0 0 0 0 0 0 0 0 0 0 0 0 0 0 0 0 0 0 0 0 0 0 0 0 0 0 0 0 0
0 0 0 0 0 0 0 0 0 0 0 0 0 0 0 0 0 0 0 0 0 0 0 0 0 0 0 0 0 0 0 0 0 0 0 0 0 0 0 0 0 0 0
0 0 0 0 0 0 0 0 0 0 0 0 0 0 0 0 0 0 0 0 0 0 0 0 0 0 0 0 0 0 0 0 0 0 0 0 0 0 0 0 0 0 0
0 0 0 0 0 0 0 0 0 0 0 0 0 0 0 0 0 0 0 0 0 0 0 0 0 0 0 0 0 0 0 0 0 0 0 0 0 0 0 0 0 0 0
0 0 0 0 0 0 0 0 0 0 0 0 0 0 0 0 0 0 0 0 0 0 0 0 0 0 0 0 0 0 0 0 0 0 0 0 0 0 0 0 0 0 0
0 0 0 0 0 0 0 0 0 0 0 0 0 0 0 0 0 0 0 0 0 0 0 0 0 0 0 0 0 0 0 0 0 0 0 0 0 0 0 0 0 0 0
0 0 0 0 0 0 0 0 0 0 0 0 0 0 0 0 0 0 0 0 0 0 0 0 0 0 0 0 0 0 0 0 0 0 0 0 0 0 0 0 0 0 0
0 0 0 0 0 0 0 0 0 0 0 0 0 0 0 0 0 0 0 0 0 0 0 0 0 0 0 0 0 0 0 0 0 0 0 0 0 0 0 0 0 0 0
Wind_Speed
7 10 10 10 10 10 10 10 10 10 9 9 9 10 10 10 10 10 10 10 9 9 9 9 9 9 9 9 9 8 7 7 6 6 6 7 8 8 9 9 8 6 8
10 11 11 11 11 11 11 11 10 10 10 10 10 10 10 10 9 9 9 9 9 9 9 9 9 8 8 8 7 7 6 5 5 4 4 6 8 9 9 10 10 6 9
11 11 11 11 12 12 11 11 10 10 10 10 10 10 10 9 9 8 8 8 8 8 8 8 8 8 8 7 7 6 5 5 5 5 3 2 5 9 9 10 9 9 8
12 11 11 12 12 12 12 12 11 11 10 10 10 10 9 9 9 8 8 8 7 8 8 7 7 7 7 6 5 5 5 5 6 6 3 3 5 9 10 10 9 9 8
12 11 11 12 12 12 12 12 12 11 11 10 10 9 9 8 8 8 7 7 7 7 7 6 6 6 6 5 5 4 5 6 6 4 3 5 5 9 10 9 9 9 8
12 12 11 12 12 12 12 12 12 11 11 10 10 9 9 8 8 7 7 6 6 6 6 6 5 5 5 5 4 4 5 6 5 2 4 5 5 9 10 9 9 9 8
12 12 11 13 13 12 12 12 11 11 10 10 9 8 8 7 7 6 6 6 6 6 6 6 5 5 4 4 4 4 5 7 2 2 5 5 6 9 9 9 9 9 9
11 12 11 13 13 13 12 11 10 9 9 8 7 7 7 6 6 6 6 6 6 5 5 5 4 4 4 3 3 4 5 6 3 4 6 6 8 10 10 9 9 9 9
10 10 10 9 11 12 12 11 9 8 8 7 6 5 5 5 5 6 6 5 5 5 5 5 4 3 2 2 2 3 5 7 3 2 7 5 9 10 10 9 9 8 9
7 8 9 9 10 9 8 10 9 8 7 5 5 4 4 5 5 5 6 5 4 4 3 3 2 2 1 1 2 3 5 5 2 5 5 6 10 10 10 9 9 9 9
6 5 6 7 7 8 8 9 8 7 6 5 5 6 5 4 4 4 6 6 4 3 2 2 2 2 2 3 3 4 4 1 4 6 5 8 10 10 10 9 9 9 9
6 6 6 5 5 5 5 6 4 4 4 4 3 3 3 2 2 5 7 6 5 4 3 4 4 4 4 3 4 3 2 1 5 6 5 9 10 10 9 10 10 10 10
6 5 5 5 5 5 3 3 1 2 2 2 2 2 2 2 2 3 3 3 4 5 3 3 3 3 2 1 1 1 2 4 4 5 5 9 10 10 10 10 10 10 11
5 4 4 4 5 5 4 2 2 2 2 2 2 2 2 1 1 2 1 1 2 1 0 0 0 1 2 2 3 3 5 4 5 4 5 9 10 10 11 11 11 11 11
5 4 4 3 5 5 3 0 3 3 3 3 1 1 3 1 2 1 2 1 1 1 1 1 2 3 4 4 5 5 5 5 6 5 4 9 11 11 12 12 12 12 12
5 5 3 3 4 5 3 2 3 3 2 3 1 2 3 2 2 2 2 2 2 1 2 2 3 3 3 4 4 5 5 4 5 6 5 6 10 11 12 13 13 13 13
7 6 5 4 4 5 5 4 3 2 4 3 2 2 3 3 3 3 2 2 2 2 3 3 4 3 3 4 4 5 5 5 4 5 5 4 5 9 11 13 14 14 14
7 8 5 5 6 6 5 4 3 3 4 3 3 4 4 4 6 4 3 2 3 3 3 3 3 3 3 3 3 4 4 4 5 4 4 4 3 5 7 11 12 13 15
7 7 6 5 6 5 4 3 4 4 3 3 3 4 5 5 5 4 3 3 3 3 3 3 3 3 2 3 3 3 3 4 4 5 5 5 4 4 4 7 11 12 14
5 7 7 6 6 4 2 4 3 4 4 4 3 3 4 4 5 4 3 4 4 3 3 3 3 2 2 2 3 4 3 4 4 5 5 4 4 4 4 5 4 7 13
4 6 7 6 5 3 2 2 3 3 3 3 3 3 3 4 4 3 3 4 3 3 3 4 3 2 2 2 3 3 3 4 4 4 3 3 4 4 5 4 3 3 5
5 5 6 5 5 4 2 3 3 3 3 3 2 3 4 4 4 3 3 3 3 2 3 3 3 2 1 1 2 2 2 3 3 3 3 3 4 4 4 6 5 5 5
5 4 5 6 5 5 4 3 4 3 2 2 3 3 4 4 4 4 4 3 2 2 2 2 2 2 1 1 1 2 2 2 1 2 3 3 4 3 3 4 6 6 6
6 5 6 6 5 5 5 3 3 3 2 3 3 2 3 4 4 4 3 3 3 3 2 2 3 2 2 1 1 1 2 3 3 1 2 3 4 4 4 5 5 6 6
7 5 5 6 6 5 5 4 3 3 3 3 3 3 3 3 3 3 3 3 3 3 3 4 4 3 2 1 1 1 2 2 2 3 2 1 2 3 3 4 4 4 5
7 5 5 6 6 5 5 4 4 4 4 3 3 3 3 2 2 3 3 3 3 3 3 3 3 3 2 3 2 2 2 2 1 2 2 2 2 1 3 3 4 4 4
Wind_Direction
96 94 88 86 86 89 91 89 88 91 93 93 93 92 87 83 80 76 73 70 69 69 68 67 64 64 64 61 60 59 59 57 57 61 65 64 60 57 52 45 46 57 57
102 96 91 88 87 89 90 89 88 90 91 89 91 90 88 85 81 77 73 72 71 69 68 65 62 60 60 59 58 54 48 43 37 36 56 65 64 62 60 56 52 52 52
102 103 95 90 89 89 89 90 89 88 88 89 90 89 87 85 82 79 73 71 71 68 66 63 60 57 56 55 53 46 35 22 13 3 6 51 69 65 63 60 55 52 49
96 92 91 92 92 91 89 88 89 88 89 92 92 89 88 85 82 79 74 70 68 66 63 61 58 56 55 52 46 37 18 1 357 355 18 60 68 68 63 59 54 52 51
94 93 93 94 94 92 90 88 87 87 88 91 89 89 87 86 83 80 79 75 70 66 61 58 57 54 55 51 40 23 3 350 347 355 49 68 69 69 64 57 51 50 47
100 98 98 98 96 94 93 91 90 88 87 86 85 83 84 85 83 80 80 79 74 68 61 56 56 55 53 46 31 14 354 340 341 44 74 74 70 66 62 56 52 48 45
104 105 104 103 101 98 96 94 92 91 90 88 87 85 84 85 86 85 81 77 71 65 59 57 56 55 52 44 25 1 343 336 316 75 82 79 75 70 61 55 50 46 42
107 110 112 112 108 103 100 97 95 95 94 92 92 93 92 94 92 88 82 77 71 66 63 59 56 61 55 40 14 346 334 333 14 76 88 79 75 68 60 53 48 45 43
112 120 125 128 118 112 108 106 103 102 103 104 108 114 121 125 117 107 97 86 78 72 70 66 63 68 64 40 351 328 325 334 349 46 86 74 72 66 59 51 46 42 40
116 123 130 133 132 132 124 122 124 127 130 135 142 157 167 169 154 139 123 104 94 87 87 87 85 95 127 244 285 301 311 322 41 72 75 76 71 66 58 51 46 41 39
108 117 120 124 134 139 138 138 149 151 163 172 188 202 191 194 178 159 122 134 131 133 151 168 184 198 221 239 252 277 297 270 84 78 65 72 71 65 58 52 48 43 39
132 126 123 126 126 118 118 142 166 160 167 187 180 185 195 147 111 119 138 156 169 183 210 225 232 236 234 232 232 251 286 99 86 88 71 71 70 65 58 53 51 46 42
123 123 124 125 118 119 109 109 113 130 153 144 129 131 107 96 129 130 155 169 193 198 226 213 224 239 223 155 122 125 60 63 74 79 71 72 71 66 60 55 53 49 45
118 111 107 119 118 101 94 117 150 110 100 73 26 70 80 66 81 98 124 137 157 160 189 125 66 56 40 61 69 69 76 82 87 89 76 73 70 67 62 57 55 53 48
105 103 87 77 100 104 95 123 96 72 75 90 18 33 94 70 64 79 94 81 62 65 74 49 56 53 39 42 56 57 61 73 89 95 82 75 72 68 64 60 57 54 50
134 121 112 101 97 116 125 98 83 98 94 79 19 25 79 87 79 59 74 64 68 66 50 58 70 63 59 47 50 55 55 69 93 107 108 83 74 70 66 62 58 55 51
141 122 96 98 88 79 71 67 84 78 76 67 22 20 69 71 74 65 59 57 47 63 66 49 55 54 68 65 54 60 51 46 71 93 111 109 90 72 68 65 60 56 52
122 114 110 98 85 75 68 55 61 66 70 64 36 14 34 63 74 56 49 53 55 49 70 71 55 56 57 63 53 52 57 41 51 72 89 96 99 94 75 71 64 58 54
118 120 118 96 88 86 91 79 63 69 61 62 51 25 21 39 65 65 48 49 52 44 49 74 60 59 63 70 87 68 57 49 42 52 62 74 78 94 101 82 72 62 56
106 111 107 96 97 102 95 87 67 60 55 52 52 44 26 35 53 53 55 55 56 51 47 70 80 66 64 51 70 75 61 61 52 45 47 55 62 78 90 94 83 68 62
115 113 119 127 121 119 109 104 99 86 75 61 54 39 32 48 56 59 63 57 55 57 59 68 70 69 63 80 73 66 54 55 64 56 44 43 53 57 64 71 69 69 65
141 139 138 128 117 105 87 107 110 102 96 88 60 41 40 45 42 59 70 81 76 67 61 70 69 57 36 83 101 104 86 36 27 45 51 48 49 46 49 60 63 66 61
151 162 136 128 130 127 105 78 86 82 89 93 83 51 44 49 39 38 45 60 75 86 80 80 80 79 53 17 74 105 118 136 90 20 44 57 53 47 46 50 58 65 68
161 164 144 140 128 116 113 102 114 113 104 103 109 111 80 62 52 37 37 41 59 70 71 66 74 71 80 29 20 44 107 130 128 101 28 46 56 55 49 54 55 58 62
151 149 135 125 118 113 110 111 110 110 112 106 110 112 97 77 63 46 39 35 57 66 67 61 55 36 56 54 54 48 42 50 74 110 108 59 47 44 57 57 60 59 60
139 134 123 123 122 120 134 147 134 128 124 122 122 120 115 108 85 68 58 42 48 56 62 69 75 58 47 41 42 64 79 79 81 96 117 118 93 63 70 62 60 64 67